This is the latest recevied weather packets stored in our database for station/object WP3XM. If no packets are shown the sender has not sent any weather packets the latest 10 day(s).
| Time | Temp. | Humidity | Pressure | Rain* | Wind** | Luminosity | Snow |
|---|---|---|---|---|---|---|---|
| 1778103110 | 28.89° C | 75% | 1017.5 hPa | 0 mm | - | 136 W/m² | - |
| 1778102808 | 28.33° C | 77% | 1017.7 hPa | 0 mm | - | 188 W/m² | - |
| 1778102502 | 28.33° C | 76% | 1017.6 hPa | 0 mm | - | 97 W/m² | - |
| 1778102198 | 28.89° C | 75% | 1017.5 hPa | 0 mm | - | 129 W/m² | - |
| 1778101895 | 28.89° C | 75% | 1017.6 hPa | 0 mm | - | 299 W/m² | - |
| 1778101592 | 28.89° C | 73% | 1017.4 hPa | 0 mm | - | 256 W/m² | - |
| 1778101288 | 28.33° C | 75% | 1017.3 hPa | 0 mm | - | 265 W/m² | - |
| 1778100985 | 28.89° C | 74% | 1017.5 hPa | 0 mm | - | 94 W/m² | - |
| 1778100680 | 28.89° C | 73% | 1017.5 hPa | 0 mm | - | 145 W/m² | - |
| 1778100379 | 28.89° C | 73% | 1017.3 hPa | 0 mm | - | 293 W/m² | - |
| 1778100075 | 29.44° C | 69% | 1017.3 hPa | 0 mm | - | 243 W/m² | - |
| 1778099774 | 29.44° C | 70% | 1017.4 hPa | 0 mm | - | 390 W/m² | - |
| 1778099469 | 28.89° C | 72% | 1017.3 hPa | 0 mm | - | 143 W/m² | - |
| 1778099168 | 28.89° C | 71% | 1017.4 hPa | 0 mm | - | 156 W/m² | - |
| 1778098864 | 28.89° C | 72% | 1017.5 hPa | 0 mm | - | 382 W/m² | - |
| 1778098561 | 28.89° C | 73% | 1017.4 hPa | 0 mm | - | 492 W/m² | - |
| 1778098258 | 29.44° C | 72% | 1017.4 hPa | 0 mm | - | 208 W/m² | - |
| 1778097954 | 28.89° C | 76% | 1017.2 hPa | 0 mm | - | 537 W/m² | - |
| 1778097651 | 28.89° C | 76% | 1017.3 hPa | 0 mm | - | 533 W/m² | - |
| 1778097347 | 28.89° C | 74% | 1017.4 hPa | 0 mm | - | 105 W/m² | - |
| 1778097044 | 29.44° C | 72% | 1017.5 hPa | 0 mm | - | 654 W/m² | - |
| 1778096742 | 29.44° C | 73% | 1017.7 hPa | 0 mm | - | 732 W/m² | - |
| 1778096438 | 29.44° C | 72% | 1017.6 hPa | 0 mm | - | 556 W/m² | - |
| 1778096135 | 28.89° C | 73% | 1017.7 hPa | 0 mm | - | 671 W/m² | - |
| 1778095832 | 28.89° C | 74% | 1017.8 hPa | 0 mm | - | 392 W/m² | - |
* Rain latest hour (hover to see other rain measurements)
** Current wind speed in m/s (hover to see current wind gust speed)